Location: ČR
(50.0000°N, 15.0000°E)
Time: 20:39:08
(UTC+00:00)

Vanguard 3 - Pass Details

Date: 23 October 2021
Orbit: 508 x 3260 km, 33.4° (Epoch: 04 December)

Event Time Altitude Azimuth Distance (km) Brightness Sun altitude
Rises 17:00:22 0° 230° (SW) 3,580 11.4 -11.5°
Reaches altitude 10° 17:02:58 10° 217° (SW) 2,933 10.6 -11.9°
Maximum altitude 17:08:55 26° 163° (SSE) 2,583 9.6 -12.8°
Enters shadow 17:17:21 11° 115° (ESE) 4,439 10.4 -14.2°
Drops below altitude 10° 17:17:58 10° 114° (ESE) 4,612 - -14.3°
Sets 17:23:22 0° 104° (ESE) 6,119 - -15.2°
